Back to catalog

ARIANE 5 DEB

LostHEO
NORAD 43383·DEBRIS·🇫🇷 France

Launched Jun 12, 2008 from Guiana Space Centre

Loading…

Next Passes (next 24 hours)

TLE

StaleSource: Space-Track

Epoch: Dec 6, 2025, 15:42 UTC

1 43383U 08030F   25340.65430022 -.00003140  00000-0 -43534-1 0  9998
2 43383   2.1406  90.6803 6830138  95.0344 339.1700  2.63516387143503

Track ARIANE 5 DEB in real time with AllMySat

Download on the App Store